Location: Saint-Gilles les Bains
(21.0539°S, 55.2287°E)
Time: 05:07:02
(UTC+04:00)

Hubble Space Telescope - Pass Details

Date: 21 April 2024
Orbit: 512 x 515 km, 28.5° (Epoch: 20 May)

Event Time Altitude Azimuth Distance (km) Brightness Sun altitude
Exits shadow 05:53:38 11° 235° (SW) 1,701 2.8 -9.8°
Maximum altitude 05:57:08 32° 172° (S) 910 1.9 -9.0°
Drops below altitude 10° 06:00:47 10° 107° (ESE) 1,748 4.5 -8.2°
Sets 06:03:12 0° 97° (E) 2,634 6.0 -7.6°
